COSMOS 2251 DEB, 37998

Orbit data source: Space-Track

COSMOS 2251 DEB, 37998 is space debris in LEO originally from a launch on Wed, 16 Jun 1993 UTC launched from the Plesetsk Missile And Space Complex (PKMTR). The debris from Iridium 33, an American commercial communications satellite, has been tracked extensively since its accidental collision with the defunct Russian satellite Cosmos 2251 in 2009. This event, occurring at high speed in low Earth orbit (LEO), generated thousands of pieces of space debris, significantly increasing the risk of further collisions. The Iridium 33 debris cloud has impacted space traffic management and orbital debris mitigation strategies, making it a subject of ongoing study in space situational awareness.

Loading next visibility...
Identifier
37998, 1993-036BQZ
Orbit
LEO
Country
Flag of CISCIS
Related business
Manufacturer
Unknown
Mission
Spacecraft
Bus & Motor
Unknown
Mass
Unknown
Launch date (UTC)
1993-06-16 (33 years ago)
Launch vehicle
Unknown
Launch site
Plesetsk Missile And Space Complex (PKMTR)
Object type
Payload
Rocket body
Debris
Shape & HBR
Unknown shape, 0.1 m
Radar Cross Section
Small (<0.1 m²)

Expand to show TLE details & history
Last TLE update: 18 hours ago

TLE from 18 hours ago
0 COSMOS 2251 DEB
1 37998U 93036BQZ 26174.91934123  .00000983  00000-0  28172-3 0  9992
2 37998  74.0352 234.7557 0020348 268.2379  91.6448 14.46185814670799
Epoch: 2026-06-23T22:03Z
TLE epoch observation values (Epoch: 2026-06-23T22:03:51.082Z)
Latitude
-0.00007°
Longitude
-8.29116°
Altitude
741.202 km
Speed
7.484 km/s
True Right ascension
15h 39m 01s
True Declination
0° 00' 00"
Sunlit
Object was in full shadow at epoch
Visualization orbit readout
Latitude
Unknown
Longitude
Unknown
Altitude
Unknown
Speed
Unknown
Apparent Right ascension
Unknown
Apparent Declination
Unknown
Sunlit
N/A
Visualization observer readout
Local Sidereal Time
03:13:51
Azimuth
Unknown
Elevation
Unknown
Doppler factor
Unknown
Orbital elements
Apogee altitude
750.222 km
Perigee altitude
721.271 km
Semi-major axis
7,113.883 km
Eccentricity
0.00203
Inclination
74.0352°
RAAN
234.7557°
Arg. of periapsis
268.2379°
True anomaly
91.87786°
Mean anomaly
91.6448°
Eccentric anomaly
91.76133°
Mean motion
3.61729 °/min
Orbital period
99.52 mins
BSTAR
0.00028172
Loading maneuver chart data...
Computing Atmospheric mass density...

Documentation

Showing up to 5 results
|